Home > Weather > Lemgo > Past weeks

Flag for Germany Weather for the Past 2 Weeks in Lemgo, North Rhine-Westphalia, Germany

Now
52 °F

Broken clouds.


Feels Like: 46 °F
Forecast: 42 / 48 °F
Wind: 20 mph from South

Location: Bueckeburg

Current Time: Feb 7, 2016 at 10:53:29 AM

Latest Report: Feb 7, 2016 at 10:20 AM


Visibility: N/A

Pressure: 29.45 "Hg

Humidity: 62%

Dew point: 39 °F

Location of LemgoLocation

Historic Weather in Lemgo — Graph

°F

Lemgo Temperature Yesterday

Maximum temperature yesterday: 54 °F (at 3:20 PM)
Minimum temperature yesterday: 46 °F (at 6:20 AM)
Average temperature yesterday: 50 °F

High & Low Weather Summary for the Past Weeks

 TemperatureHumidityPressure
High54 °F (Jan 25, 1:20 PM)100% (Jan 23, 9:20 AM)30.51 "Hg (Jan 23, 9:20 AM)
Low36 °F (Jan 30, 9:20 PM)57% (Jan 28, 1:20 PM)29.45 "Hg (Feb 7, 9:20 AM)
Average45 °F84%30.01 "Hg
* Reported Jan 23 9:20 AM — Feb 7 9:20 AM, Lemgo, Weather by CustomWeather, © 2016

Note: Actual official high and low records may vary slightly from our data, if they occured in-between our weather recording intervals... More about our weather records

Advertising

Lemgo Weather History for the Previous 24 Hours

 ConditionsComfort  
Time TempWeatherWind HumidityBarometerVisibility
9:20 AM
Sun, Feb 7
52 °FBroken clouds.18 mph58%29.45 "HgN/A
8:20 AM50 °FPartly sunny.23 mph62%29.47 "HgN/A
7:20 AM50 °FPartly cloudy.21 mph62%29.47 "HgN/A
6:20 AM50 °FPassing clouds.23 mph62%29.47 "HgN/A
5:20 AM50 °FPassing clouds.17 mph62%29.50 "HgN/A
4:20 AM50 °FPassing clouds.17 mph62%29.50 "HgN/A
3:20 AM50 °FCool.18 mph62%29.53 "HgN/A
2:20 AM50 °FCool.20 mph67%29.56 "HgN/A
1:20 AM48 °FCool.16 mph66%29.59 "HgN/A
12:20 AM50 °FPassing clouds.18 mph67%29.62 "HgN/A
11:20 PM
Sat, Feb 6
50 °FPassing clouds.15 mph67%29.62 "HgN/A
10:20 PM50 °FPassing clouds.17 mph67%29.65 "HgN/A
9:20 PM50 °FPassing clouds.20 mph67%29.65 "HgN/A
8:20 PM50 °FPassing clouds.22 mph71%29.68 "HgN/A
7:20 PM50 °FPassing clouds.16 mph71%29.71 "HgN/A
6:20 PM50 °FPassing clouds.16 mph71%29.71 "HgN/A
5:20 PM50 °FPassing clouds.12 mph76%29.74 "HgN/A
4:20 PM52 °FPartly sunny.10 mph72%29.77 "HgN/A
3:20 PM54 °FPartly sunny.8 mph67%29.77 "HgN/A
2:20 PM52 °FScattered clouds.10 mph72%29.80 "HgN/A
1:20 PM52 °FPartly sunny.12 mph72%29.83 "HgN/A
12:20 PM52 °FScattered clouds.10 mph72%29.86 "HgN/A
11:20 AM50 °FScattered clouds.15 mph76%29.86 "HgN/A
10:20 AM48 °FBroken clouds.14 mph76%29.86 "HgN/A
Weather by CustomWeather, © 2016

See weather overviewHow to use our weather pages